This demonstration page uses our WeatherBlox Daily Observations layout. Learn more.

Left ArrowRight Arrow

39.51506, -84.39828

Hourly Observations for October 22, 2021

Temp ( °F °C ) Dew Point ( °F °C ) Humidity (%) Winds ( mph kmh ) Pressure ( in mb ) Visibility ( mi km ) Precip ( " mm )
12:15 am 00:15 Mostly Cloudy 47 8.6 47 8.4 99 99 SSW 6 9 30.04 1017 10 16 N/A
12:35 am 00:35 Mostly Cloudy 47 8.3 46 7.7 96 96 SSW 7 11 30.04 1017 10 16 N/A
12:55 am 00:55 Mostly Cloudy 48 8.7 47 8.4 98 98 SW 6 9 30.04 1017 10 16 N/A
1:15 am 01:15 Cloudy 49 9.4 47 8.4 94 94 N N/A 30.05 1018 10 16 N/A
1:35 am 01:35 Mostly Cloudy 48 8.8 47 8.4 97 97 SW 5 7 30.05 1018 10 16 N/A
1:55 am 01:55 Mostly Cloudy 47 8.6 47 8.3 98 98 N N/A 30.04 1017 10 16 N/A
2:15 am 02:15 Cloudy 48 9 48 9 100 100 SW 3 6 30.05 1018 10 16 N/A
2:35 am 02:35 Cloudy 49 9.3 48 9 98 98 N N/A 30.04 1017 10 16 N/A
2:55 am 02:55 Cloudy 48 9.1 48 8.8 98 98 WSW 3 6 30.05 1018 10 16 N/A
3:15 am 03:15 Cloudy 49 9.3 48 9.1 99 99 W 3 6 30.05 1018 10 16 N/A
3:35 am 03:35 Cloudy 48 9 N/A N/A N N/A 30.04 1017 10 16 N/A
3:55 am 03:55 Cloudy 49 9.7 49 9.2 97 97 N N/A 30.04 1017 10 16 N/A
4:15 am 04:15 Cloudy 50 9.8 49 9.5 98 98 W 3 6 30.04 1017 10 16 N/A
4:35 am 04:35 Cloudy 50 10.1 49 9.3 95 95 W 5 7 30.03 1017 10 16 N/A
4:55 am 04:55 Cloudy 51 10.5 49 9.5 94 94 NW 6 9 30.04 1017 10 16 N/A
5:15 am 05:15 Cloudy 51 10.7 49 9.6 93 93 WNW 3 6 30.03 1017 10 16 N/A
5:35 am 05:35 Cloudy 51 10.7 50 9.8 94 94 W 5 7 30.04 1017 10 16 N/A
5:55 am 05:55 Cloudy 51 10.7 50 9.8 94 94 WSW 3 6 30.04 1017 10 16 N/A
6:15 am 06:15 Cloudy 51 10.6 50 9.9 95 95 WSW 3 6 30.04 1017 10 16 N/A
6:35 am 06:35 Cloudy 51 10.7 50 9.9 95 95 WSW 5 7 30.04 1017 10 16 N/A
6:55 am 06:55 Cloudy 52 10.9 49 9.5 91 91 WNW 5 7 30.05 1017 10 16 N/A
7:15 am 07:15 Cloudy 52 10.9 49 9.4 91 91 NW 5 7 30.05 1017 10 16 N/A
7:35 am 07:35 Cloudy 52 11 49 9.4 90 90 N N/A 30.05 1017 10 16 N/A
7:55 am 07:55 Cloudy 52 10.9 50 9.9 94 94 W 3 6 30.06 1018 10 16 N/A
8:15 am 08:15 Cloudy 51 10.7 49 9.6 93 93 N 8 13 30.07 1018 10 16 N/A
8:35 am 08:35 Cloudy 51 10.5 48 8.9 90 90 N 8 13 30.08 1019 10 16 N/A
8:55 am 08:55 Cloudy 51 10.5 47 8.5 88 88 N 6 9 30.08 1019 10 16 N/A
9:15 am 09:15 Cloudy 51 10.4 44 6.9 79 79 N 8 13 30.09 1019 10 16 N/A
9:35 am 09:35 Cloudy 51 10.4 45 7.4 82 82 NE 5 7 30.09 1019 10 16 N/A
9:55 am 09:55 Cloudy 51 10.3 44 6.8 79 79 NNE 5 7 30.10 1019 10 16 N/A
10:15 am 10:15 Cloudy 50 10.2 44 6.4 78 78 N 3 6 30.10 1019 10 16 N/A
10:35 am 10:35 Cloudy 50 10.2 43 5.9 75 75 NE 7 11 30.10 1019 10 16 N/A
10:55 am 10:55 Cloudy 50 10 43 6.1 77 77 NNE 6 9 30.10 1019 10 16 N/A
11:15 am 11:15 Cloudy 50 10.2 41 5 70 70 NNE 7 11 30.10 1019 10 16 N/A
11:35 am 11:35 Cloudy 50 10.1 41 5 71 71 NE 9 15 30.10 1019 10 16 N/A
11:55 am 11:55 Cloudy 50 9.9 41 5.2 73 73 N 7 11 30.10 1019 10 16 N/A
12:15 pm 12:15 Cloudy 50 10 43 6.1 77 77 NNE 7 11 30.10 1019 10 16 N/A
12:35 pm 12:35 Cloudy 50 9.9 43 6 77 77 N 8 13 30.10 1019 10 16 N/A
12:55 pm 12:55 Cloudy 49 9.5 43 6.2 80 80 NNE 9 15 30.09 1019 10 16 N/A
1:15 pm 13:15 Cloudy 48 8.9 43 6.3 84 84 NNE 8 13 30.09 1019 10 16 N/A
1:35 pm 13:35 Cloudy 48 8.8 45 7.1 89 89 NNE 7 11 30.08 1019 10 16 N/A
1:55 pm 13:55 Cloudy 49 9.3 45 7.2 87 87 NE 5 7 30.08 1019 10 16 N/A
2:15 pm 14:15 Cloudy 49 9.6 45 7.2 85 85 ENE 6 9 30.06 1018 10 16 N/A
2:35 pm 14:35 Cloudy 49 9.7 45 7.3 85 85 NNE 7 11 30.06 1018 10 16 N/A
2:55 pm 14:55 Cloudy 49 9.7 45 7.2 85 85 NE 5 7 30.06 1018 10 16 N/A
3:15 pm 15:15 Cloudy 50 9.8 45 7.2 84 84 N N/A 30.05 1018 10 16 N/A
3:35 pm 15:35 Cloudy 50 9.9 45 7.3 84 84 ENE 3 6 30.05 1018 10 16 N/A
3:55 pm 15:55 Cloudy 50 10.1 46 7.5 84 84 N N/A 30.05 1018 10 16 N/A
4:15 pm 16:15 Cloudy 50 10.1 46 7.6 85 85 N N/A 30.05 1018 10 16 N/A
4:35 pm 16:35 Cloudy 51 10.3 46 7.9 85 85 N N/A 30.06 1018 7 11 N/A
4:55 pm 16:55 Cloudy 50 9.9 47 8.5 91 91 ESE 5 7 30.05 1018 7 11 N/A
5:15 pm 17:15 Cloudy 50 10.1 47 8.6 91 91 SE 3 6 30.06 1018 10 16 N/A
5:35 pm 17:35 Cloudy 50 9.9 48 8.8 93 93 ESE 6 9 30.05 1018 10 16 N/A
5:55 pm 17:55 Cloudy 50 9.8 48 8.8 94 94 ESE 5 7 30.05 1018 10 16 N/A
6:15 pm 18:15 Cloudy with Mist and Fog 50 9.8 48 9.1 95 95 N N/A 30.05 1018 5 8 N/A
6:35 pm 18:35 Cloudy 49 9.6 49 9.4 99 99 N N/A 30.05 1018 10 16 N/A
6:55 pm 18:55 Cloudy with Mist and Fog 49 9.6 49 9.5 99 99 ESE 3 6 30.05 1018 4 6 N/A
7:15 pm 19:15 Cloudy 50 10 N/A N/A SSE 3 6 30.04 1017 10 16 N/A
7:35 pm 19:35 Cloudy 50 10 N/A N/A SSE 3 6 30.04 1017 10 16 N/A
7:55 pm 19:55 Cloudy 50 10 N/A N/A N N/A 30.05 1018 10 16 N/A
8:15 pm 20:15 Cloudy with Haze 50 10 N/A N/A N N/A 30.05 1018 5 8 N/A
8:35 pm 20:35 Cloudy 50 10 N/A N/A N N/A 30.04 1017 10 16 N/A
8:55 pm 20:55 Cloudy with Light Rain 50 10 N/A N/A N N/A 30.05 1018 2 3 N/A
9:15 pm 21:15 Cloudy with Drizzle 50 10 N/A N/A N N/A 30.04 1017 4 6 N/A
9:35 pm 21:35 Cloudy with Drizzle 50 10 N/A N/A N N/A 30.04 1017 4 6 N/A
9:55 pm 21:55 Cloudy with Mist and Fog 50 10 N/A N/A N N/A 30.04 1017 4 6 N/A
10:15 pm 22:15 Cloudy with Haze 50 10 N/A N/A SW 3 6 30.04 1017 4 6 N/A
10:35 pm 22:35 Cloudy with Haze 50 10 N/A N/A WSW 3 6 30.04 1017 5 8 N/A
10:55 pm 22:55 Cloudy with Haze 50 10 N/A N/A WSW 3 6 30.04 1017 5 8 N/A
11:15 pm 23:15 Cloudy with Haze 52 11 N/A N/A WSW 5 7 30.04 1017 7 11 N/A
11:35 pm 23:35 Cloudy 52 11 N/A N/A SW 5 7 30.03 1017 7 11 N/A
11:55 pm 23:55 Cloudy 52 11 N/A N/A SW 7 11 30.03 1017 7 11 N/A

Powered by AerisWeather